Kulusuk, Greenland

2:01 AM -03 on December 11, 2017 (GMT -0300)
Kulusuk

Weather History for BGKK - February, 2014

Change the Weather History Date:

Saturday, February 22, 2014

  Actual Average Record
Temperature  
Mean Temperature 28 °F -  
Max Temperature 32 °F 21 °F 44 °F (2000)
Min Temperature 24 °F 16 °F 0 °F (2008)
Degree Days  
Heating Degree Days 37    
Moisture  
Dew Point 14 °F    
Average Humidity 48    
Maximum Humidity 69    
Minimum Humidity 24    
Precipitation  
Precipitation 0.00 in - - ()
Sea Level Pressure  
Sea Level Pressure 29.44 in    
Wind  
Wind Speed 12 mph ()    
Max Wind Speed 20 mph    
Max Gust Speed 31 mph    
Visibility 6.9 miles    
Events Rain , Snow    
Averages and records for this station are not official NWS values.
T = Trace of Precipitation, MM = Missing Value Source: Averaged Metar Reports

Daily Weather History Graph

Daily Weather History Graph

Search for Another Location

Airport or City:

Trip Planner

Search our weather history database for the weather conditions in past years. The results will help you decide how hot, cold, wet, or windy it might be!

Date:

Astronomy

Feb. 22, 2014 Rise Set
Actual Time 7:06 AM -03 4:19 PM -03
Civil Twilight 6:13 AM -03 5:11 PM -03
Nautical Twilight 5:15 AM -03 6:10 PM -03
Astronomical Twilight 4:16 AM -03 7:09 PM -03
Moon 1:56 AM -03 (2/22) 8:14 AM -03 (2/22)
Length of Visible Light 10h 58m
Length of Day
9h 13m
Waning Gibbous, 51% of the Moon is Illuminated
Feb 22
Waning Gibbous
Feb 22
Last Quarter
Mar 1
New
Mar 8
First Quarter
Mar 16
Full

Hourly Weather History & Observations

Time (-03) Temp. Windchill Dew Point Humidity Pressure Visibility Wind Dir Wind Speed Gust Speed Precip Events Conditions
12:00 AM 33 °F - 13 °F 29% 29.45 in 22 mi ENE 16.1 mph - - Rain Rain
12:20 AM 32.0 °F 22.1 °F 17.6 °F 55% 29.42 in 6.2 mi NE 13.8 mph - N/A Rain Light Rain Showers
12:50 AM 32.0 °F 23.0 °F 15.8 °F 51% 29.42 in 6.2 mi NE 11.5 mph 23.0 mph N/A Rain Light Rain Showers
1:00 AM 32 °F - 13 °F 31% 29.44 in 22 mi NE 9.2 mph - - Rain Light Rain Showers
1:20 AM 32.0 °F 23.0 °F 15.8 °F 51% 29.42 in 6.2 mi NNE 11.5 mph - N/A   Mostly Cloudy
1:50 AM 32.0 °F 23.6 °F 15.8 °F 51% 29.42 in 6.2 mi NE 10.4 mph 21.9 mph N/A   Mostly Cloudy
2:00 AM 31 °F - 14 °F 35% 29.44 in 22 mi NE 12.7 mph - -   Clear
2:20 AM 32.0 °F 21.6 °F 15.8 °F 51% 29.42 in 6.2 mi NE 15.0 mph 26.5 mph N/A   Mostly Cloudy
2:50 AM 30.2 °F 21.3 °F 15.8 °F 55% 29.42 in 6.2 mi NE 10.4 mph 21.9 mph N/A   Mostly Cloudy
3:00 AM 32 °F - 12 °F 29% 29.43 in 22 mi NE 12.7 mph - -   Partly Cloudy
3:20 AM 32.0 °F 23.6 °F 15.8 °F 51% 29.42 in 6.2 mi NE 10.4 mph 21.9 mph N/A Rain Light Rain
3:50 AM 28.4 °F 16.2 °F 19.4 °F 69% 29.42 in 6.2 mi East 17.3 mph - N/A Rain Light Freezing Rain
4:00 AM 29 °F - 18 °F 52% 29.45 in 7 mi ENE 11.5 mph - - Snow Light Snow Showers
4:20 AM 30.2 °F 20.2 °F 15.8 °F 55% 29.42 in 6.2 mi North 12.7 mph - N/A Snow Light Snow Showers
4:50 AM 28.4 °F 20.4 °F 17.6 °F 64% 29.42 in 6.2 mi North 8.1 mph - N/A   Mostly Cloudy
5:00 AM 31 °F - 12 °F 32% 29.44 in 22 mi North 4.6 mph - - Snow Snow
5:20 AM 32.0 °F 24.2 °F 14.0 °F 48% 29.42 in 6.2 mi NNE 9.2 mph - N/A   Mostly Cloudy
5:50 AM 30.2 °F 21.3 °F 14.0 °F 51% 29.42 in 6.2 mi NE 10.4 mph - N/A   Scattered Clouds
6:00 AM 31 °F - 11 °F 28% 29.45 in 22 mi NE 6.9 mph - -   Clear
6:20 AM 30.2 °F 22.6 °F 14.0 °F 51% 29.44 in 6.2 mi ENE 8.1 mph - N/A   Mostly Cloudy
6:50 AM 28.4 °F 22.2 °F 14.0 °F 55% 29.44 in 6.2 mi North 5.8 mph - N/A   Mostly Cloudy
7:00 AM 28 °F - 13 °F 39% 29.45 in 22 mi North 4.6 mph - - Rain Light Freezing Rain
7:20 AM 30.2 °F 23.4 °F 14.0 °F 51% 29.44 in 6.2 mi NNE 6.9 mph - N/A   Scattered Clouds
7:50 AM 28.4 °F 17.0 °F 17.6 °F 64% 29.44 in 6.2 mi East 15.0 mph - N/A   Scattered Clouds
8:00 AM 29 °F - 14 °F 41% 29.45 in 22 mi East 15.0 mph - -   Clear
8:50 AM 30.2 °F 20.2 °F 15.8 °F 55% 29.42 in 6.2 mi NE 12.7 mph - N/A   Mostly Cloudy
9:00 AM 31 °F - 11 °F 29% 29.44 in 12 mi NE 15.0 mph - - Snow Light Snow Showers
9:50 AM 30.2 °F 20.8 °F 14.0 °F 51% 29.42 in 6.2 mi ENE 11.5 mph - N/A   Mostly Cloudy
10:00 AM 30 °F - 13 °F 34% 29.44 in 22 mi East 12.7 mph - - Snow Snow
10:50 AM 28.4 °F 15.8 °F 17.6 °F 64% 29.44 in 6.2 mi East 18.4 mph - N/A   Mostly Cloudy
11:00 AM 29 °F - 16 °F 45% 29.45 in 18 mi ENE 17.3 mph - - Snow Light Snow
11:50 AM 30.2 °F 18.5 °F 15.8 °F 55% 29.42 in 6.2 mi ENE 17.3 mph 31.1 mph N/A   Mostly Cloudy
12:00 PM 30 °F - 14 °F 37% 29.43 in 19 mi ENE 16.1 mph - - Rain Light Freezing Rain
12:50 PM 30.2 °F 17.8 °F 14.0 °F 51% 29.42 in 6.2 mi ENE 19.6 mph - N/A   Mostly Cloudy
1:00 PM 30 °F - 12 °F 33% 29.43 in 22 mi ENE 18.4 mph - -   Unknown Precipitation
1:50 PM 30.2 °F 18.5 °F 14.0 °F 51% 29.42 in 6.2 mi ENE 17.3 mph - N/A   Mostly Cloudy
2:00 PM 30 °F - 11 °F 31% 29.43 in 22 mi ENE 16.1 mph - -   Clear
2:20 PM 30.2 °F 20.2 °F 14.0 °F 51% 29.42 in 6.2 mi ENE 12.7 mph - N/A   Partly Cloudy
2:50 PM 28.4 °F 18.5 °F 14.0 °F 55% 29.42 in 6.2 mi ENE 11.5 mph - N/A   Scattered Clouds
3:00 PM 30 °F - 8 °F 25% 29.43 in 22 mi ENE 13.8 mph - -   Partly Cloudy
3:20 PM 28.4 °F 18.0 °F 12.2 °F 51% 29.42 in 6.2 mi ENE 12.7 mph - N/A   Scattered Clouds
3:50 PM 28.4 °F 17.0 °F 12.2 °F 51% 29.42 in 6.2 mi East 15.0 mph - N/A Snow Light Snow Showers
4:00 PM 28 °F - 9 °F 31% 29.44 in 22 mi East 15.0 mph - -   Clear
4:20 PM 28.4 °F 17.0 °F 12.2 °F 51% 29.42 in 6.2 mi East 15.0 mph - N/A   Unknown
4:50 PM 26.6 °F 16.8 °F 10.4 °F 51% 29.44 in 6.2 mi ENE 10.4 mph - N/A   Unknown
5:00 PM 28 °F - 7 °F 26% 29.45 in 22 mi ENE 10.4 mph - -   Clear
5:20 PM 26.6 °F 17.5 °F 10.4 °F 51% 29.44 in 6.2 mi ENE 9.2 mph - N/A   Unknown
5:50 PM 28.4 °F 18.0 °F 10.4 °F 47% 29.44 in 6.2 mi ENE 12.7 mph - N/A   Partly Cloudy
6:00 PM 29 °F - 6 °F 24% 29.46 in 22 mi ENE 12.7 mph - -   Clear
6:20 PM 26.6 °F 13.8 °F 12.2 °F 55% 29.44 in 6.2 mi East 17.3 mph - N/A   Partly Cloudy
6:50 PM 28.4 °F 18.5 °F 10.4 °F 47% 29.44 in 6.2 mi ENE 11.5 mph - N/A   Partly Cloudy
7:00 PM 28 °F - 9 °F 30% 29.46 in 22 mi ENE 11.5 mph - -   Clear
7:20 PM 28.4 °F 17.0 °F 12.2 °F 51% 29.44 in 6.2 mi ENE 15.0 mph - N/A   Scattered Clouds
7:50 PM 28.4 °F 16.6 °F 14.0 °F 55% 29.44 in 6.2 mi ENE 16.1 mph 27.6 mph N/A   Scattered Clouds
8:00 PM 27 °F - 12 °F 39% 29.46 in 22 mi East 17.3 mph - -   Clear
8:20 PM 26.6 °F 13.8 °F 15.8 °F 64% 29.44 in 6.2 mi East 17.3 mph - N/A   Mostly Cloudy
8:50 PM 26.6 °F 14.7 °F 15.8 °F 64% 29.44 in 6.2 mi East 15.0 mph - N/A Snow Light Snow Showers
9:00 PM 27 °F - 13 °F 42% 29.46 in 22 mi ENE 13.8 mph - - Snow Light Snow Showers
9:20 PM 26.6 °F 15.7 °F 14.0 °F 59% 29.44 in 6.2 mi ENE 12.7 mph - N/A   Mostly Cloudy
9:50 PM 26.6 °F 14.3 °F 14.0 °F 59% 29.44 in 6.2 mi East 16.1 mph - N/A   Scattered Clouds
10:00 PM 26 °F - 14 °F 47% 29.46 in 22 mi East 15.0 mph - -   Clear
10:20 PM 24.8 °F 12.4 °F 15.8 °F 69% 29.44 in 6.2 mi East 15.0 mph - N/A   Partly Cloudy
10:50 PM 26.6 °F 14.3 °F 15.8 °F 64% 29.44 in 6.2 mi East 16.1 mph - N/A   Scattered Clouds
11:00 PM 25 °F - 13 °F 48% 29.45 in 22 mi East 16.1 mph - -   Mostly Cloudy
11:20 PM 24.8 °F 13.4 °F 14.0 °F 64% 29.44 in 6.2 mi ENE 12.7 mph - N/A   Scattered Clouds
11:50 PM 24.8 °F 14.0 °F 14.0 °F 64% 29.42 in 6.2 mi ENE 11.5 mph - N/A   Partly Cloudy